Wind_Speed
14 14 14 14 15 15 14 13 13 13 13 13 12 12 11 12 12 12 12 12 12 12 12 13 13 13 14 14 14 14 14 13 13 13 14 14 15 14 15 15 15 16 16
15 15 14 14 15 15 14 14 14 14 14 14 13 13 13 13 13 13 13 13 13 13 13 13 13 14 14 14 15 14 14 14 14 14 14 15 15 16 16 15 15 15 16
16 16 16 16 16 15 15 15 15 15 15 15 14 14 14 14 14 14 14 14 14 14 14 14 14 14 14 14 15 15 15 15 15 15 15 15 16 16 16 16 17 17 18
16 17 17 17 16 16 16 16 16 16 16 16 16 16 15 15 15 15 15 16 15 15 15 15 15 15 15 15 15 16 16 16 16 16 16 16 16 17 17 18 18 18 19
17 17 17 17 17 16 16 17 17 17 17 17 17 16 16 16 17 17 17 17 16 17 17 16 16 16 16 16 16 16 17 17 16 17 17 17 17 18 18 18 19 19 20
19 18 18 18 17 18 18 18 18 18 18 18 18 17 17 17 17 18 18 18 18 18 18 18 18 18 18 17 17 17 17 17 17 17 18 18 18 18 19 19 20 20 21
20 19 18 18 19 19 19 19 19 19 19 19 19 19 19 19 18 18 18 18 19 19 19 19 20 20 19 19 19 19 19 19 20 21 20 20 20 20 20 21 22 22 23
20 20 19 19 19 19 19 19 19 20 20 20 20 20 20 19 19 19 20 20 20 20 20 20 20 20 20 20 20 20 21 21 22 22 22 22 23 23 23 23 24 24 24
21 20 19 19 19 19 18 18 19 19 20 20 21 21 21 20 20 20 20 20 20 20 19 19 19 19 20 20 21 21 22 22 23 23 24 24 24 24 25 25 25 25 25
21 20 19 19 19 20 19 19 19 20 20 21 21 21 21 20 20 20 20 20 20 20 20 19 19 20 21 21 21 22 22 22 23 23 24 24 24 24 25 25 26 26 26
21 20 20 20 19 19 19 19 20 20 20 20 21 21 21 21 21 20 20 20 21 21 21 20 20 21 21 21 22 22 22 23 23 24 24 25 25 25 25 25 26 27 27
21 21 21 21 20 20 20 20 20 20 20 20 21 21 21 21 21 21 21 21 21 22 22 22 21 22 22 22 22 23 23 23 24 24 24 25 25 26 26 26 27 27 28
22 22 22 22 21 21 21 20 20 20 21 21 22 22 22 22 22 22 22 22 23 23 22 22 22 22 23 23 22 23 24 24 24 25 25 25 26 27 27 27 28 29 30
23 23 23 22 22 22 22 21 21 21 21 22 22 23 23 22 23 23 24 23 22 22 22 22 23 23 23 23 23 24 25 26 26 26 26 26 27 27 27 28 29 29 30
24 24 24 24 23 22 22 22 22 22 22 23 23 23 23 23 22 23 23 23 23 23 23 24 23 24 24 24 25 25 26 26 26 26 26 27 28 28 29 30 30 30 31
25 24 24 24 24 24 24 23 23 24 24 24 24 23 23 24 24 24 24 24 24 24 25 25 25 25 25 25 26 26 26 27 27 27 27 28 29 30 30 31 31 31 32
26 26 25 25 25 25 25 25 24 24 25 25 24 24 24 25 25 25 26 25 25 25 25 26 26 26 26 26 27 27 27 27 27 27 28 29 30 31 31 31 32 33 33
26 26 26 26 26 25 25 25 25 25 25 25 26 25 25 25 26 26 26 26 26 26 26 26 27 27 27 27 28 27 27 27 27 28 29 29 30 31 31 32 33 34 35
26 26 27 26 26 26 25 25 25 26 26 26 26 26 26 26 26 26 27 27 27 27 27 27 27 27 28 28 28 28 28 28 28 29 30 30 31 32 32 33 34 35 36
26 27 27 27 27 27 26 26 26 26 26 26 26 27 27 27 26 27 27 27 27 28 28 28 28 28 28 29 29 29 29 29 30 31 31 32 33 33 34 35 36 37 38
27 27 28 28 28 27 27 27 27 27 27 27 27 27 27 27 27 28 28 29 29 29 29 29 29 29 29 30 30 31 31 31 31 31 32 33 34 34 35 36 37 38 39
29 29 29 29 29 28 28 28 28 28 28 27 27 27 27 27 28 28 28 29 29 29 29 29 29 28 29 30 31 32 32 32 32 32 33 34 34 35 35 36 38 39 40
30 30 31 30 30 29 29 29 29 29 28 28 28 28 28 28 29 29 29 29 30 30 30 30 30 29 30 31 32 33 32 32 33 33 34 34 35 35 36 37 38 40 41
31 31 31 31 31 31 30 30 30 30 29 29 29 28 28 29 29 30 30 30 30 31 31 31 31 31 32 32 32 33 33 34 34 34 35 36 37 38 38 39 40 41 42
31 31 31 31 31 31 31 31 31 31 31 30 30 29 29 30 30 31 31 31 31 31 32 32 32 33 33 33 33 34 34 35 36 36 37 38 39 40 40 41 41 42 43
31 31 31 32 31 31 31 31 31 31 31 31 31 31 31 31 31 31 31 31 32 32 33 33 33 33 34 34 34 34 35 36 37 38 38 39 40 40 41 42 42 43 43
Wind_Direction
262 261 258 261 262 265 263 261 263 261 257 257 261 263 268 272 272 271 272 274 275 272 272 273 276 276 276 277 278 279 280 282 283 284 285 288 290 292 292 291 290 290 291
263 264 263 264 264 264 261 262 264 263 261 260 262 264 267 267 268 268 271 273 273 273 273 273 273 275 276 276 277 278 279 283 284 284 285 288 290 291 292 292 292 292 294
262 262 262 264 267 264 262 262 261 259 260 262 263 264 265 265 266 268 270 272 272 271 272 273 274 276 276 276 277 277 278 281 281 284 286 288 290 291 290 292 293 294 295
263 262 263 264 267 266 264 263 261 260 261 262 264 264 267 268 268 270 272 271 270 270 271 273 274 274 275 276 278 277 279 280 281 282 286 289 290 291 291 292 294 296 298
264 263 264 265 265 264 265 265 263 262 263 265 265 265 267 269 270 271 271 271 270 270 271 272 273 272 274 275 277 276 277 278 278 281 284 287 290 291 291 291 293 295 297
262 262 264 264 263 263 264 265 266 265 265 266 266 266 268 270 272 272 269 269 269 270 272 273 272 272 272 273 274 275 277 277 278 280 284 286 289 290 292 292 292 293 294
264 265 264 264 264 264 264 264 266 267 267 266 267 268 269 271 271 271 271 270 270 270 271 272 271 271 273 274 273 273 275 276 277 279 282 284 287 288 290 292 293 293 294
264 265 266 265 264 264 265 266 267 268 268 269 268 269 269 270 270 271 272 272 272 272 271 272 272 273 273 274 273 273 275 276 277 279 281 283 285 285 287 289 290 291 292
263 265 266 265 265 265 266 266 269 269 270 271 271 270 269 269 270 272 271 269 268 270 271 273 272 273 275 275 275 275 276 278 279 280 281 283 284 285 287 289 290 291 292
261 263 264 264 264 264 265 266 266 268 271 272 271 270 269 269 271 272 270 268 269 271 273 274 273 273 276 278 277 278 279 280 282 283 284 284 285 285 287 290 291 293 294
258 260 261 262 263 264 264 264 266 269 272 273 273 272 270 270 270 270 268 268 268 269 272 275 276 276 278 280 280 280 280 281 282 284 285 287 287 287 288 290 292 294 295
258 258 258 260 262 264 266 267 267 269 271 272 272 273 272 271 267 266 267 269 270 271 270 272 274 276 278 280 280 281 281 282 282 283 284 286 288 289 291 292 292 293 295
256 257 258 259 261 263 265 267 268 269 271 272 272 272 272 271 267 265 266 267 268 269 269 270 273 276 278 280 281 281 282 283 283 285 285 286 288 290 292 293 293 294 296
256 257 258 260 261 263 265 267 268 270 273 274 274 273 272 270 268 267 268 268 267 267 267 270 273 276 278 280 281 281 282 283 284 285 285 286 287 289 291 293 294 296 297
258 259 260 260 262 262 264 265 268 270 272 274 274 273 272 270 269 269 268 267 268 269 270 272 275 277 278 280 281 282 282 283 284 284 284 286 288 290 291 293 294 296 297
259 259 260 261 261 263 264 266 268 270 272 274 274 273 270 269 268 269 266 265 268 270 271 273 275 277 278 279 281 283 283 283 282 283 284 287 289 290 292 293 294 296 297
259 259 260 261 262 264 266 267 268 271 272 273 273 272 270 269 269 269 267 265 267 270 272 275 276 277 278 279 280 282 282 283 282 284 286 288 289 290 291 293 294 296 297
257 259 260 261 262 264 266 268 269 271 272 273 272 272 271 270 270 270 269 267 266 269 272 275 277 277 277 278 280 281 281 281 282 285 287 288 289 290 291 293 294 296 297
257 259 261 261 263 264 266 268 270 272 273 274 273 272 272 272 271 270 270 270 268 269 272 274 276 277 277 278 280 281 280 281 283 285 286 287 289 290 292 294 295 297 298
258 260 260 261 263 265 266 268 270 271 273 274 273 272 271 272 273 271 271 271 271 272 273 274 275 275 276 278 279 280 280 281 283 285 286 288 290 291 292 294 296 297 298
258 260 260 261 263 265 266 267 269 271 273 273 273 273 272 272 272 271 271 272 272 273 273 273 274 275 276 277 279 280 280 282 283 285 287 289 290 292 294 296 297 298 299
259 260 260 262 264 265 266 267 269 270 271 272 272 273 273 273 273 273 273 273 273 274 274 273 274 275 276 277 278 279 280 282 284 285 287 288 290 293 295 296 298 299 300
259 259 259 261 264 265 266 267 268 270 271 271 271 272 273 274 274 274 273 273 273 273 273 273 275 276 277 277 279 279 280 282 284 286 287 288 290 292 295 297 298 299 300
260 259 259 261 262 263 265 267 269 270 270 271 271 272 273 273 274 273 273 273 273 273 273 273 274 276 277 279 280 279 280 281 283 285 287 289 290 292 294 296 298 300 301
260 259 260 261 262 263 265 266 268 270 270 271 271 273 273 275 275 274 273 274 274 273 274 273 274 276 277 278 279 280 281 282 283 285 287 290 291 292 293 295 297 299 301
260 260 261 261 261 263 264 265 268 270 270 271 272 273 274 275 276 275 274 274 274 274 274 274 275 276 277 278 279 280 281 283 284 286 288 289 291 292 293 295 297 299 300
Height
5840 5840 5840 5840 5840 5840 5840 5840 5841 5841 5841 5841 5841 5841 5841 5841 5841 5841 5840 5840 5840 5839 5838 5838 5837 5837 5836 5835 5834 5834 5833 5832 5831 5830 5829 5828 5826 5825 5824 5822 5820 5819 5817
5836 5836 5836 5836 5836 5837 5837 5837 5837 5837 5837 5837 5837 5837 5837 5837 5837 5837 5837 5836 5836 5835 5835 5834 5834 5833 5832 5832 5831 5830 5829 5828 5828 5826 5825 5824 5823 5821 5820 5818 5816 5815 5813
5831 5832 5832 5832 5832 5832 5833 5833 5833 5833 5833 5833 5833 5833 5833 5833 5833 5833 5833 5832 5832 5831 5831 5830 5830 5829 5828 5828 5827 5826 5825 5824 5823 5822 5821 5820 5819 5817 5816 5814 5812 5810 5809
5827 5827 5827 5828 5828 5828 5828 5828 5828 5828 5829 5829 5829 5829 5829 5829 5829 5828 5828 5828 5827 5827 5826 5826 5825 5825 5824 5823 5823 5822 5821 5820 5819 5818 5817 5816 5814 5813 5811 5809 5808 5806 5804
5822 5822 5822 5823 5823 5823 5823 5823 5823 5824 5824 5824 5824 5824 5824 5824 5824 5823 5823 5823 5822 5822 5821 5821 5820 5820 5819 5819 5818 5818 5817 5816 5815 5814 5813 5811 5810 5808 5806 5804 5803 5801 5799
5817 5817 5817 5817 5817 5818 5818 5818 5818 5818 5818 5819 5819 5819 5819 5819 5818 5818 5818 5817 5817 5817 5816 5816 5815 5815 5814 5814 5813 5812 5812 5811 5810 5809 5808 5806 5805 5803 5801 5799 5797 5796 5794
5811 5811 5811 5811 5811 5812 5812 5812 5812 5812 5813 5813 5813 5813 5813 5813 5813 5812 5812 5811 5811 5811 5810 5810 5809 5809 5808 5808 5807 5807 5806 5805 5804 5803 5802 5801 5799 5798 5796 5794 5792 5790 5788
5805 5805 5805 5805 5805 5806 5806 5806 5806 5806 5806 5806 5806 5806 5806 5807 5806 5806 5806 5805 5805 5804 5804 5803 5803 5803 5802 5802 5801 5800 5800 5799 5798 5797 5796 5795 5793 5791 5789 5787 5785 5783 5781
5799 5799 5799 5799 5799 5800 5800 5800 5800 5800 5800 5800 5800 5800 5800 5800 5800 5799 5799 5799 5798 5798 5798 5797 5797 5797 5796 5795 5795 5794 5793 5792 5791 5790 5789 5787 5786 5784 5782 5781 5778 5776 5774
5792 5793 5793 5793 5793 5793 5793 5793 5794 5794 5793 5793 5793 5793 5793 5793 5793 5792 5792 5792 5792 5792 5792 5791 5791 5790 5790 5789 5788 5787 5786 5785 5784 5783 5782 5781 5779 5777 5775 5773 5771 5769 5767
5785 5786 5786 5787 5787 5787 5787 5787 5787 5787 5787 5787 5786 5786 5786 5786 5785 5785 5785 5785 5786 5785 5785 5785 5784 5783 5783 5782 5781 5780 5779 5778 5777 5776 5775 5773 5772 5770 5768 5766 5764 5761 5759
5778 5779 5779 5780 5780 5780 5780 5781 5781 5780 5780 5780 5779 5779 5779 5778 5778 5778 5779 5779 5779 5778 5779 5778 5778 5777 5776 5775 5774 5773 5772 5771 5770 5768 5767 5766 5765 5763 5760 5758 5756 5753 5751
5771 5771 5772 5773 5773 5773 5774 5774 5774 5774 5773 5773 5772 5772 5772 5771 5771 5771 5771 5771 5771 5771 5771 5771 5770 5769 5769 5768 5767 5765 5764 5763 5762 5761 5760 5759 5757 5755 5753 5751 5748 5746 5743
5763 5764 5764 5765 5766 5766 5767 5767 5767 5767 5766 5766 5766 5765 5765 5764 5764 5764 5764 5764 5764 5763 5763 5763 5763 5762 5761 5760 5759 5758 5757 5755 5754 5753 5752 5751 5749 5747 5745 5743 5740 5738 5735
5756 5756 5757 5758 5758 5759 5759 5759 5760 5760 5759 5759 5758 5757 5757 5757 5757 5756 5756 5756 5756 5756 5756 5755 5755 5754 5753 5752 5751 5750 5749 5747 5746 5745 5744 5743 5741 5739 5737 5734 5732 5729 5726
5748 5749 5749 5750 5751 5751 5752 5752 5752 5752 5752 5751 5750 5750 5749 5749 5749 5749 5748 5748 5748 5748 5748 5748 5747 5747 5746 5744 5743 5742 5740 5739 5738 5737 5736 5734 5733 5730 5728 5726 5723 5720 5717
5740 5741 5741 5742 5743 5743 5744 5744 5744 5744 5744 5743 5742 5742 5741 5741 5741 5741 5741 5740 5740 5740 5740 5740 5739 5739 5738 5736 5735 5734 5733 5731 5730 5729 5727 5726 5724 5722 5719 5717 5714 5711 5708
5731 5732 5733 5734 5735 5735 5735 5735 5736 5735 5735 5735 5734 5733 5733 5733 5732 5732 5732 5732 5732 5732 5732 5731 5731 5730 5729 5728 5727 5725 5724 5723 5721 5720 5719 5717 5715 5712 5710 5707 5705 5701 5698
5723 5724 5725 5726 5726 5727 5727 5727 5727 5727 5726 5726 5725 5725 5724 5724 5724 5723 5723 5723 5723 5723 5723 5722 5722 5721 5720 5719 5718 5717 5715 5714 5713 5711 5710 5708 5705 5703 5700 5698 5695 5691 5688
5714 5715 5716 5717 5718 5718 5718 5718 5718 5718 5717 5717 5717 5716 5715 5715 5715 5714 5714 5714 5714 5714 5714 5713 5713 5712 5711 5710 5709 5708 5706 5705 5704 5702 5700 5698 5696 5693 5690 5687 5684 5681 5677
5705 5706 5707 5708 5709 5709 5709 5709 5709 5709 5709 5708 5708 5707 5706 5706 5706 5705 5705 5705 5705 5705 5704 5704 5703 5702 5702 5701 5700 5698 5697 5696 5694 5692 5691 5688 5686 5683 5680 5677 5673 5670 5666
5696 5697 5698 5699 5700 5700 5700 5700 5700 5700 5700 5699 5699 5698 5697 5697 5696 5696 5696 5696 5695 5695 5695 5694 5693 5693 5692 5691 5690 5689 5687 5686 5684 5682 5680 5678 5675 5672 5669 5666 5662 5658 5654
5686 5687 5688 5689 5690 5690 5690 5690 5691 5691 5690 5690 5689 5689 5688 5688 5687 5687 5686 5686 5686 5685 5685 5684 5684 5683 5682 5681 5680 5678 5677 5675 5674 5672 5670 5667 5665 5662 5659 5655 5651 5647 5643
5676 5677 5678 5679 5679 5680 5680 5681 5681 5681 5680 5680 5680 5679 5679 5678 5678 5677 5676 5676 5676 5675 5675 5674 5673 5673 5672 5670 5669 5668 5666 5664 5663 5661 5658 5656 5654 5651 5647 5644 5640 5635 5631
5666 5667 5668 5668 5669 5670 5670 5671 5671 5671 5670 5670 5670 5669 5669 5668 5667 5667 5666 5666 5665 5665 5664 5663 5663 5662 5661 5660 5658 5657 5655 5653 5651 5649 5647 5644 5642 5638 5635 5631 5627 5623 5618
5656 5657 5657 5658 5658 5659 5660 5660 5660 5660 5660 5660 5660 5659 5659 5658 5657 5656 5656 5655 5654 5654 5653 5652 5651 5650 5649 5648 5647 5645 5644 5642 5640 5637 5635 5632 5629 5626 5622 5619 5615 5610 5606